Location: Lahas
(43.5538°N, 0.8906°E)
Time: 07:10:21
(UTC+00:00)

COSMOS 2406 - Pass Details

Date: 15 May 2026
Orbit: 846 x 859 km, 71.0° (Epoch: 5 June)

Event Time Altitude Azimuth Distance (km) Brightness Sun altitude
Rises 21:20:21 0° 223° (SW) 3,421 6.3 -18.3°
Reaches altitude 10° 21:22:55 10° 230° (SW) 2,488 5.6 -18.6°
Maximum altitude 21:28:22 44° 302° (WNW) 1,171 4.4 -19.2°
Drops below altitude 10° 21:33:51 10° 14° (NNE) 2,499 6.2 -19.8°
Sets 21:36:26 0° 21° (NNE) 3,437 6.9 -20.0°
